Terminal Aerodrome Forecast
Issued by NWS New Orleans/Baton Rouge, LA

Home | Current Version | Previous Version | Text Only | Print | Product List | Glossary On
Versions: 1 2 3 4 5 6 7 8 9 10 11 12 13 14 15 16 17 18 19 20 21 22 23 24 25 26 27 28 29 30 31 32 33 34 35 36 37 38 39 40 41 42 43 44 45
000
FTUS44 KLIX 220304 AAA
TAFNEW
TAF AMD
KNEW 220304Z 2203/2224 21012KT 4SM -TSRA BR BKN015CB
     FM220400 20012KT 5SM BR BKN015
     FM220900 24012G20KT P6SM BKN035
      TEMPO 2209/2212 4SM TSRA OVC025CB
     FM221200 25014KT P6SM BKN050
     FM222100 27021G32KT P6SM SCT045=

USA.gov is the U.S. government's official web portal to all federal, state and local government web resources and services.